Tracking 35237 objects as of 5-Sep-2026
HD Live streaming from Space Station
objects crossing your sky now

W-CUBE


W-CUBE is no longer on orbit


NORAD ID: 48965
Int'l Code: 2021-059CQ
Launch date: June 30, 2021
Source: (FIN)
Launch site: AIR FORCE EASTERN TEST RANGE (AFETR)
Decay date: 2025-10-01
Your satellite tracking list
Your tracking list is empty




NASA's NSSDC Master Catalog

Two Line Element Set (TLE):
1 48965U 21059CQ  25273.10988651  .03797464  26509-5  82303-3 0  9992
2 48965  97.6531  97.9098 0006615 262.0715  97.9828 16.30605806237996
Source of the keplerian elements: AFSPC